THY384 EDDB-LOWW

Flight info

Callsign THY384
Flight time 0h 52m
Altitude 31000
Route LUROS4N/24L LUROS M725 HDO DCT EVIKU DCT BITSI DCT MIKOV MIKOV8W
Aircraft A20N/M-SDE2E3FGHIRWXY/LB1

Departure

Time 2026-05-04 20:03
Airport Berlin Brandenburg Airport (EDDB)

Arrival

Time 2026-05-04 20:55
Airport Vienna International Airport (LOWW)
Time Latitude Longitude Altitude Speed Heading
2026-05-04 19:02 52.36095 13.50813 154 ft 0 kts 69°
2026-05-04 19:13 52.36088 13.50788 154 ft 0 kts 69°
2026-05-04 19:49 52.36088 13.50786 127 ft 2 kts 69°
2026-05-04 19:49 52.36079 13.50748 154 ft 4 kts 69°
2026-05-04 19:49 52.36069 13.50707 154 ft 4 kts 69°
2026-05-04 19:50 52.36060 13.50666 154 ft 4 kts 69°
2026-05-04 19:50 52.36052 13.50633 154 ft 4 kts 74°
2026-05-04 19:50 52.36049 13.50591 154 ft 4 kts 107°
2026-05-04 19:50 52.36062 13.50561 154 ft 2 kts 158°
2026-05-04 19:51 52.36063 13.50560 154 ft 0 kts 159°
2026-05-04 19:53 52.36062 13.50560 154 ft 0 kts 159°
2026-05-04 19:54 52.36046 13.50571 154 ft 5 kts 159°
2026-05-04 19:54 52.36003 13.50597 154 ft 8 kts 159°
2026-05-04 19:54 52.35940 13.50636 154 ft 11 kts 159°
2026-05-04 19:54 52.35861 13.50636 154 ft 11 kts 199°
2026-05-04 19:55 52.35788 13.50636 154 ft 8 kts 212°
2026-05-04 19:55 52.35755 13.50546 154 ft 11 kts 246°
2026-05-04 19:55 52.35725 13.50421 154 ft 13 kts 248°
2026-05-04 19:55 52.35689 13.50269 154 ft 15 kts 249°
2026-05-04 19:56 52.35652 13.50111 154 ft 14 kts 249°
2026-05-04 19:56 52.35615 13.49954 154 ft 16 kts 248°
2026-05-04 19:56 52.35572 13.49774 154 ft 18 kts 249°
2026-05-04 19:56 52.35526 13.49579 154 ft 17 kts 248°
2026-05-04 19:57 52.35485 13.49406 154 ft 16 kts 249°
2026-05-04 19:57 52.35447 13.49245 154 ft 15 kts 249°
2026-05-04 19:57 52.35389 13.49176 154 ft 10 kts 168°
2026-05-04 19:57 52.35317 13.49219 154 ft 11 kts 158°
2026-05-04 19:58 52.35259 13.49274 154 ft 9 kts 127°
2026-05-04 19:58 52.35243 13.49372 154 ft 7 kts 100°
2026-05-04 19:58 52.35236 13.49442 154 ft 4 kts 99°
2026-05-04 19:58 52.35235 13.49449 154 ft 0 kts 99°
2026-05-04 20:01 52.35234 13.49456 154 ft 2 kts 99°
2026-05-04 20:01 52.35230 13.49504 154 ft 7 kts 99°
2026-05-04 20:02 52.35216 13.49611 154 ft 12 kts 102°
2026-05-04 20:02 52.35223 13.49705 154 ft 0 kts 70°
2026-05-04 20:02 52.35230 13.49737 154 ft 22 kts 69°
2026-05-04 20:02 52.35387 13.50398 154 ft 100 kts 69°
2026-05-04 20:03 52.35715 13.51771 160 ft 157 kts 68°
2026-05-04 20:03 52.36117 13.53465 784 ft 161 kts 68°
2026-05-04 20:03 52.36501 13.55216 1536 ft 165 kts 69°
2026-05-04 20:03 52.36804 13.57046 2309 ft 168 kts 77°
2026-05-04 20:04 52.36943 13.58978 2955 ft 176 kts 86°
2026-05-04 20:04 52.36909 13.61016 3600 ft 182 kts 96°
2026-05-04 20:04 52.36688 13.63091 4265 ft 188 kts 107°
2026-05-04 20:04 52.36112 13.65102 4684 ft 210 kts 120°
2026-05-04 20:05 52.35319 13.67304 4797 ft 237 kts 122°
2026-05-04 20:05 52.34452 13.69626 4906 ft 240 kts 122°
2026-05-04 20:05 52.33586 13.71975 5033 ft 241 kts 120°
2026-05-04 20:05 52.32974 13.74534 5158 ft 244 kts 103°
2026-05-04 20:06 52.32814 13.77329 5405 ft 254 kts 93°
2026-05-04 20:06 52.32722 13.80362 5831 ft 277 kts 94°
2026-05-04 20:06 52.32275 13.83425 6595 ft 280 kts 119°
2026-05-04 20:06 52.31051 13.85865 7424 ft 279 kts 146°
2026-05-04 20:07 52.29362 13.87411 8291 ft 280 kts 158°
2026-05-04 20:07 52.27572 13.88711 9166 ft 283 kts 160°
2026-05-04 20:07 52.25753 13.89996 10042 ft 287 kts 159°
2026-05-04 20:07 52.23925 13.91326 10871 ft 289 kts 159°
2026-05-04 20:08 52.22090 13.92703 11704 ft 291 kts 158°
2026-05-04 20:08 52.20256 13.94106 12574 ft 291 kts 158°
2026-05-04 20:08 52.18422 13.95523 13463 ft 291 kts 158°
2026-05-04 20:08 52.16588 13.96943 14182 ft 295 kts 159°
2026-05-04 20:09 52.14718 13.98387 14817 ft 300 kts 159°
2026-05-04 20:09 52.12811 13.99857 15436 ft 306 kts 159°
2026-05-04 20:09 52.10874 14.01348 16064 ft 311 kts 159°
2026-05-04 20:09 52.08906 14.02863 16705 ft 315 kts 158°
2026-05-04 20:10 52.06912 14.04396 17361 ft 319 kts 158°
2026-05-04 20:10 52.04920 14.05927 18024 ft 322 kts 158°
2026-05-04 20:10 52.02885 14.07489 18636 ft 325 kts 158°
2026-05-04 20:10 52.00804 14.09086 19234 ft 328 kts 158°
2026-05-04 20:11 51.98752 14.10657 19722 ft 333 kts 158°
2026-05-04 20:11 51.96635 14.12275 20216 ft 339 kts 158°
2026-05-04 20:11 51.94487 14.13916 20715 ft 344 kts 159°
2026-05-04 20:11 51.92304 14.15574 21228 ft 348 kts 160°
2026-05-04 20:12 51.90036 14.16961 21736 ft 349 kts 167°
2026-05-04 20:12 51.87674 14.17894 22248 ft 350 kts 174°
2026-05-04 20:12 51.85260 14.18417 22800 ft 352 kts 177°
2026-05-04 20:12 51.82816 14.18891 23346 ft 355 kts 176°
2026-05-04 20:13 51.80364 14.19380 23845 ft 357 kts 176°
2026-05-04 20:13 51.77888 14.19880 24303 ft 359 kts 176°
2026-05-04 20:13 51.75406 14.20385 24778 ft 360 kts 176°
2026-05-04 20:13 51.72915 14.20892 25261 ft 361 kts 176°
2026-05-04 20:14 51.70419 14.21400 25751 ft 362 kts 177°
2026-05-04 20:14 51.67924 14.21907 26245 ft 361 kts 177°
2026-05-04 20:14 51.65427 14.22413 26741 ft 361 kts 177°
2026-05-04 20:14 51.62942 14.22916 27255 ft 360 kts 177°
2026-05-04 20:15 51.60467 14.23417 27771 ft 357 kts 177°
2026-05-04 20:15 51.58009 14.23913 28308 ft 355 kts 178°
2026-05-04 20:15 51.55573 14.24405 28850 ft 351 kts 178°
2026-05-04 20:15 51.53162 14.24891 29395 ft 347 kts 178°
2026-05-04 20:16 51.50782 14.25371 29966 ft 342 kts 178°
2026-05-04 20:16 51.48441 14.25843 30389 ft 338 kts 178°
2026-05-04 20:16 51.46097 14.26311 30642 ft 340 kts 178°
2026-05-04 20:16 51.43741 14.26780 30860 ft 343 kts 178°
2026-05-04 20:17 51.41350 14.27255 30948 ft 350 kts 178°
2026-05-04 20:17 51.36389 14.28240 30959 ft 369 kts 178°
2026-05-04 20:18 51.31153 14.29284 30962 ft 389 kts 177°
2026-05-04 20:18 51.25638 14.30385 30962 ft 409 kts 177°
2026-05-04 20:19 51.19889 14.31530 30959 ft 429 kts 177°
2026-05-04 20:19 51.13838 14.32732 30958 ft 447 kts 176°
2026-05-04 20:20 51.07636 14.33964 30948 ft 448 kts 176°
2026-05-04 20:20 51.01460 14.35184 30957 ft 447 kts 176°
2026-05-04 20:21 50.95277 14.36399 30960 ft 448 kts 176°
2026-05-04 20:21 50.86007 14.39395 30961 ft 463 kts 170°
2026-05-04 20:22 50.79763 14.41730 30959 ft 464 kts 170°
2026-05-04 20:22 50.73500 14.44055 30955 ft 464 kts 170°
2026-05-04 20:23 50.67218 14.46376 30950 ft 464 kts 170°
2026-05-04 20:23 50.60932 14.48691 30944 ft 464 kts 170°
2026-05-04 20:24 50.54642 14.51002 30948 ft 464 kts 170°
2026-05-04 20:24 50.48475 14.53593 30939 ft 467 kts 161°
2026-05-04 20:25 50.42910 14.58926 30938 ft 475 kts 141°
2026-05-04 20:25 50.38163 14.66127 30938 ft 476 kts 139°
2026-05-04 20:26 50.33408 14.73352 30936 ft 476 kts 139°
2026-05-04 20:26 50.28673 14.80498 30936 ft 476 kts 139°
2026-05-04 20:27 50.23902 14.87675 30927 ft 475 kts 139°
2026-05-04 20:27 50.19138 14.94819 30933 ft 475 kts 139°
2026-05-04 20:28 50.14363 15.01959 30933 ft 475 kts 139°
2026-05-04 20:28 50.09583 15.09087 30934 ft 475 kts 139°
2026-05-04 20:29 50.04799 15.16199 30930 ft 475 kts 139°
2026-05-04 20:29 50.00024 15.23276 30931 ft 476 kts 139°
2026-05-04 20:30 49.95228 15.30366 30943 ft 475 kts 139°
2026-05-04 20:30 49.90434 15.37432 30943 ft 476 kts 139°
2026-05-04 20:31 49.85638 15.44480 30924 ft 475 kts 139°
2026-05-04 20:31 49.80833 15.51523 30938 ft 475 kts 139°
2026-05-04 20:32 49.76835 15.57364 30930 ft 476 kts 139°
2026-05-04 20:32 49.72020 15.64382 30932 ft 476 kts 139°
2026-05-04 20:33 49.67241 15.71331 30947 ft 476 kts 139°
2026-05-04 20:33 49.62401 15.78346 30943 ft 476 kts 139°
2026-05-04 20:34 49.57570 15.85329 30941 ft 476 kts 139°
2026-05-04 20:34 49.52729 15.92303 30944 ft 479 kts 139°
2026-05-04 20:35 49.47857 15.99304 30944 ft 479 kts 139°
2026-05-04 20:35 49.43004 16.06262 30453 ft 474 kts 139°
2026-05-04 20:36 49.40602 16.09697 29879 ft 471 kts 139°
2026-05-04 20:36 49.38215 16.13106 29217 ft 466 kts 139°
2026-05-04 20:36 49.35852 16.16477 28565 ft 462 kts 139°
2026-05-04 20:36 49.33538 16.19766 27930 ft 457 kts 140°
2026-05-04 20:37 49.31076 16.22808 27282 ft 451 kts 146°
2026-05-04 20:37 49.28442 16.25369 26664 ft 446 kts 153°
2026-05-04 20:37 49.25689 16.27472 26059 ft 440 kts 156°
2026-05-04 20:37 49.22938 16.29486 25473 ft 436 kts 156°
2026-05-04 20:38 49.20219 16.31490 24924 ft 432 kts 156°
2026-05-04 20:38 49.17527 16.33479 24371 ft 428 kts 156°
2026-05-04 20:38 49.14859 16.35450 23833 ft 424 kts 156°
2026-05-04 20:38 49.12218 16.37400 23258 ft 420 kts 156°
2026-05-04 20:39 49.09600 16.39329 22659 ft 415 kts 156°
2026-05-04 20:39 49.07007 16.41238 22049 ft 412 kts 156°
2026-05-04 20:39 49.04442 16.43124 21470 ft 407 kts 156°
2026-05-04 20:39 49.01901 16.44990 20899 ft 403 kts 156°
2026-05-04 20:40 48.99398 16.46824 20335 ft 399 kts 156°
2026-05-04 20:40 48.96910 16.48647 19805 ft 395 kts 156°
2026-05-04 20:40 48.94453 16.50446 19267 ft 391 kts 156°
2026-05-04 20:40 48.92013 16.52230 18738 ft 387 kts 156°
2026-05-04 20:41 48.89600 16.53992 18208 ft 383 kts 156°
2026-05-04 20:41 48.87209 16.55736 17606 ft 380 kts 156°
2026-05-04 20:41 48.84863 16.57447 17278 ft 370 kts 156°
2026-05-04 20:41 48.82522 16.59150 17093 ft 377 kts 156°
2026-05-04 20:42 48.80152 16.60864 16889 ft 375 kts 158°
2026-05-04 20:42 48.77737 16.62268 16384 ft 369 kts 165°
2026-05-04 20:42 48.75289 16.63183 15815 ft 366 kts 170°
2026-05-04 20:42 48.72779 16.63987 15237 ft 363 kts 169°
2026-05-04 20:43 48.70315 16.64787 14682 ft 361 kts 169°
2026-05-04 20:43 48.67900 16.65577 14140 ft 359 kts 169°
2026-05-04 20:43 48.65470 16.66375 13577 ft 356 kts 169°
2026-05-04 20:43 48.63058 16.67166 12965 ft 354 kts 169°
2026-05-04 20:44 48.60654 16.67953 12382 ft 352 kts 169°
2026-05-04 20:44 48.58268 16.68734 11804 ft 350 kts 169°
2026-05-04 20:44 48.55899 16.69526 11213 ft 348 kts 168°
2026-05-04 20:44 48.53551 16.70380 10668 ft 346 kts 167°
2026-05-04 20:45 48.51220 16.71253 10110 ft 344 kts 167°
2026-05-04 20:45 48.48903 16.72120 9540 ft 342 kts 167°
2026-05-04 20:45 48.46598 16.72974 8949 ft 340 kts 167°
2026-05-04 20:45 48.44327 16.73807 8680 ft 329 kts 167°
2026-05-04 20:46 48.42121 16.74316 8532 ft 314 kts 182°
2026-05-04 20:46 48.40049 16.73668 8404 ft 299 kts 203°
2026-05-04 20:46 48.38342 16.72012 8203 ft 290 kts 222°
2026-05-04 20:46 48.37147 16.69586 7780 ft 291 kts 243°
2026-05-04 20:47 48.36608 16.66655 7364 ft 293 kts 263°
2026-05-04 20:47 48.36649 16.63584 6957 ft 294 kts 270°
2026-05-04 20:47 48.36746 16.60520 6553 ft 293 kts 270°
2026-05-04 20:47 48.36836 16.57493 6127 ft 286 kts 270°
2026-05-04 20:48 48.36917 16.54553 5703 ft 278 kts 270°
2026-05-04 20:48 48.36991 16.51680 5294 ft 271 kts 269°
2026-05-04 20:48 48.36743 16.49029 5172 ft 246 kts 244°
2026-05-04 20:48 48.35745 16.47096 5078 ft 229 kts 210°
2026-05-04 20:49 48.34289 16.46567 4970 ft 212 kts 169°
2026-05-04 20:49 48.33015 16.47410 4852 ft 191 kts 150°
2026-05-04 20:49 48.31941 16.48444 4590 ft 175 kts 149°
2026-05-04 20:49 48.30948 16.49374 4372 ft 161 kts 153°
2026-05-04 20:50 48.29982 16.50069 4189 ft 148 kts 161°
2026-05-04 20:50 48.28995 16.50588 3995 ft 151 kts 165°
2026-05-04 20:50 48.28002 16.51024 3782 ft 144 kts 168°
2026-05-04 20:50 48.27091 16.51413 3599 ft 130 kts 169°
2026-05-04 20:51 48.26224 16.51777 3433 ft 129 kts 169°
2026-05-04 20:51 48.25361 16.52142 3272 ft 129 kts 169°
2026-05-04 20:51 48.24518 16.52500 3108 ft 127 kts 169°
2026-05-04 20:51 48.23657 16.52865 2940 ft 127 kts 169°
2026-05-04 20:52 48.22806 16.53225 2771 ft 127 kts 168°
2026-05-04 20:52 48.21970 16.53580 2612 ft 127 kts 168°
2026-05-04 20:52 48.21119 16.53941 2450 ft 127 kts 168°
2026-05-04 20:52 48.20269 16.54301 2287 ft 126 kts 168°
2026-05-04 20:53 48.19429 16.54657 2118 ft 125 kts 168°
2026-05-04 20:53 48.18597 16.55011 1955 ft 120 kts 169°
2026-05-04 20:53 48.17811 16.55344 1798 ft 117 kts 169°
2026-05-04 20:53 48.17026 16.55678 1644 ft 118 kts 169°
2026-05-04 20:54 48.16189 16.56027 1480 ft 126 kts 166°
2026-05-04 20:54 48.15350 16.56383 1315 ft 134 kts 166°
2026-05-04 20:54 48.14419 16.56779 1143 ft 141 kts 165°
2026-05-04 20:54 48.13480 16.57176 951 ft 139 kts 163°
2026-05-04 20:55 48.12537 16.57581 763 ft 140 kts 162°
2026-05-04 20:55 48.11608 16.57973 616 ft 139 kts 162°
2026-05-04 20:55 48.10867 16.58287 623 ft 70 kts 164°
2026-05-04 20:55 48.10501 16.58442 614 ft 37 kts 165°
2026-05-04 20:56 48.10254 16.58448 609 ft 34 kts 192°
2026-05-04 20:56 48.10171 16.58416 623 ft 0 kts 194°
2026-05-04 20:56 48.10162 16.58413 617 ft 0 kts 194°
2026-05-04 20:59 48.10153 16.58409 614 ft 3 kts 199°
2026-05-04 20:59 48.10133 16.58368 614 ft 8 kts 251°
2026-05-04 20:59 48.10172 16.58301 615 ft 12 kts 341°
2026-05-04 20:59 48.10263 16.58265 613 ft 15 kts 344°
2026-05-04 21:00 48.10374 16.58218 615 ft 18 kts 345°
2026-05-04 21:00 48.10504 16.58162 615 ft 21 kts 343°
2026-05-04 21:00 48.10648 16.58102 615 ft 23 kts 345°
2026-05-04 21:00 48.10807 16.58034 617 ft 23 kts 344°
2026-05-04 21:01 48.10945 16.57976 612 ft 21 kts 344°
2026-05-04 21:01 48.11061 16.57927 614 ft 14 kts 344°
2026-05-04 21:01 48.11126 16.57811 615 ft 16 kts 296°
2026-05-04 21:01 48.11179 16.57650 621 ft 18 kts 295°
2026-05-04 21:02 48.11233 16.57484 619 ft 16 kts 296°
2026-05-04 21:02 48.11284 16.57326 614 ft 18 kts 296°
2026-05-04 21:02 48.11344 16.57144 609 ft 21 kts 296°
2026-05-04 21:02 48.11404 16.56956 615 ft 15 kts 295°
2026-05-04 21:03 48.11453 16.56868 609 ft 10 kts
2026-05-04 21:03 48.11524 16.56915 609 ft 11 kts 25°
2026-05-04 21:03 48.11591 16.56882 615 ft 12 kts 301°
2026-05-04 21:03 48.11627 16.56771 613 ft 13 kts 296°
2026-05-04 21:04 48.11650 16.56686 620 ft 6 kts 265°
2026-05-04 21:04 48.11614 16.56648 609 ft 8 kts 206°
2026-05-04 21:04 48.11589 16.56630 612 ft 0 kts 206°